DW6615 Weather Reports


time (UTC)temp
C
wind
direction
speed
KPH
gust
KPH
rain 1hr
cm
rain 24hr
cm
rain mn
cm
humidity
%
barometer
mb
20260504160346 17 202 4.8 24.1 0.00 0.00 0.00 46 1012.1
20260504160107 17 227 4.8 24.1 0.00 0.00 0.00 44 1012.3
20260504150840 16 218 8.0 20.9 0.00 0.00 0.00 45 1012.9
20260504150349 16 214 8.0 20.9 0.00 0.00 0.00 49 1012.9
20260504150111 16 243 4.8 20.9 0.00 0.00 0.00 46 1013.0
20260504140852 14 252 3.2 12.9 0.00 0.00 0.00 54 1013.2
20260504140402 14 235 8.0 14.5 0.00 0.00 0.00 52 1013.2
20260504140120 13 258 1.6 14.5 0.00 0.00 0.00 54 1013.3
20260504130347 12 250 1.6 9.7 0.00 0.00 0.00 58 1013.4
20260504130106 11 192 1.6 9.7 0.00 0.00 0.00 57 1013.6
20260504120114 10 201 3.2 9.7 0.00 0.00 0.00 59 1013.9
20260504110342 8 185 3.2 6.4 0.00 0.00 0.00 60 1013.7
20260504110120 8 215 1.6 6.4 0.00 0.00 0.00 60 1013.9
20260504100351 7 172 1.6 8.0 0.00 0.00 0.00 62 1013.5
20260504100107 7 200 0.0 6.4 0.00 0.00 0.00 62 1013.7
20260504090106 7 191 0.0 6.4 0.00 0.00 0.00 59 1013.9
20260504081840 8 208 1.6 6.4 0.00 0.00 0.00 57 1013.7
20260504081608 8 243 0.0 6.4 0.00 0.00 0.00 57 1014.0
20260504081347 8 197 1.6 6.4 0.00 0.00 0.00 57 1013.8
20260504080850 8 203 526.3 526.3 0.00 0.00 0.00 57 1013.6
20260504080402 8 256 1.6 8.0 0.00 0.00 0.00 57 1013.7
20260504080122 8 251 0.0 8.0 0.00 0.00 0.00 57 1013.9
20260504070353 8 241 1.6 9.7 0.00 0.00 0.00 56 1013.6
20260504070112 8 238 0.0 9.7 0.00 0.00 0.00 56 1013.7
20260504060127 8 246 1.6 6.4 0.00 0.00 0.00 55 1013.9
20260504050416 10 253 3.2 8.0 0.00 0.00 0.00 53 1013.6
20260504050117 9 189 1.6 8.0 0.00 0.00 0.00 52 1013.8
20260504045852 10 191 1.6 6.4 0.00 0.00 0.00 53 1013.6
20260504045341 10 233 1.6 8.0 0.00 0.00 0.00 52 1013.5
20260504044848 10 260 3.2 9.7 0.00 0.00 0.00 52 1013.6
20260504044609 10 214 1.6 9.7 0.00 0.00 0.00 52 1013.8
20260504044355 10 208 3.2 9.7 0.00 0.00 0.00 52 1013.6
20260504043918 10 250 1.6 12.9 0.00 0.00 0.00 51 1013.6
20260504043405 10 204 4.8 12.9 0.00 0.00 0.00 51 1013.5
20260504043009 10 236 1.6 9.7 0.00 0.00 0.00 51 1013.7
20260504042907 10 199 3.2 9.7 0.00 0.00 0.00 51 1013.5
20260504042356 10 242 1.6 8.0 0.00 0.00 0.00 51 1013.5
20260504041901 10 240 3.2 8.0 0.00 0.00 0.00 50 1013.5
20260504041549 10 216 0.0 8.0 0.00 0.00 0.00 51 1013.7
20260504041347 10 238 1.6 9.7 0.00 0.00 0.00 50 1013.5
20260504040850 10 187 4.8 9.7 0.00 0.00 0.00 50 1013.4
20260504040343 10 233 1.6 8.0 0.00 0.00 0.00 51 1013.3
20260504040121 10 220 0.0 8.0 0.00 0.00 0.00 51 1013.5
20260504035847 10 202 3.2 8.0 0.00 0.00 0.00 51 1013.2
20260504035356 10 236 1.6 4.8 0.00 0.00 0.00 52 1013.2
20260504034914 10 192 1.6 6.4 0.00 0.00 0.00 51 1013.1
20260504034617 10 192 0.0 6.4 0.00 0.00 0.00 51 1013.3
20260504034358 10 254 1.6 6.4 0.00 0.00 0.00 51 1013.0
20260504033845 10 216 1.6 6.4 0.00 0.00 0.00 50 1012.9
20260504033354 10 247 1.6 6.4 0.00 0.00 0.00 50 1012.9
20260504033117 10 217 0.0 4.8 0.00 0.00 0.00 51 1013.2
20260504032844 10 220 1.6 4.8 0.00 0.00 0.00 51 1013.0
20260504032349 10 208 1.6 4.8 0.00 0.00 0.00 50 1013.0
20260504031840 10 219 0.0 4.8 0.00 0.00 0.00 51 1013.0
20260504031609 10 201 0.0 4.8 0.00 0.00 0.00 50 1013.2
20260504031350 10 191 0.0 4.8 0.00 0.00 0.00 51 1012.9
20260504030853 10 197 0.0 6.4 0.00 0.00 0.00 50 1012.9
20260504030342 10 247 1.6 8.0 0.00 0.00 0.00 50 1012.9
20260504030121 10 185 1.6 8.0 0.00 0.00 0.00 50 1013.1
20260504025844 10 203 1.6 8.0 0.00 0.00 0.00 50 1012.9
20260504025414 10 205 1.6 9.7 0.00 0.00 0.00 50 1012.9
20260504024854 10 200 1.6 9.7 0.00 0.00 0.00 50 1012.9
20260504024619 10 235 0.0 4.8 0.00 0.00 0.00 51 1013.1
20260504024340 10 204 1.6 4.8 0.00 0.00 0.00 50 1012.9
20260504023843 10 235 0.0 8.0 0.00 0.00 0.00 51 1012.9
20260504023350 10 226 1.6 8.0 0.00 0.00 0.00 51 1012.9
20260504023103 10 249 0.0 8.0 0.00 0.00 0.00 51 1013.2
20260504022849 10 217 0.0 6.4 0.00 0.00 0.00 52 1012.9
20260504022337 10 204 1.6 6.4 0.00 0.00 0.00 52 1013.0
20260504021845 10 214 0.0 3.2 0.00 0.00 0.00 52 1012.9
20260504021608 10 201 0.0 3.2 0.00 0.00 0.00 52 1013.1
20260504021353 10 201 0.0 3.2 0.00 0.00 0.00 52 1012.9
20260504020904 10 199 1.6 3.2 0.00 0.00 0.00 51 1012.9
20260504020353 10 191 0.0 3.2 0.00 0.00 0.00 51 1012.9
20260504020116 10 197 0.0 3.2 0.00 0.00 0.00 51 1013.1
20260504015841 10 202 1.6 3.2 0.00 0.00 0.00 50 1012.8
20260504015348 10 194 0.0 4.8 0.00 0.00 0.00 50 1012.9
20260504014854 11 189 0.0 4.8 0.00 0.00 0.00 50 1012.9
20260504014507 10 204 0.0 4.8 0.00 0.00 0.00 49 1013.1
20260504014343 11 208 1.6 4.8 0.00 0.00 0.00 49 1012.9
20260504013847 11 216 526.3 526.3 0.00 0.00 0.00 49 1012.8
20260504013357 11 198 0.0 3.2 0.00 0.00 0.00 49 1012.8
20260504013114 11 212 0.0 3.2 0.00 0.00 0.00 48 1013.1
20260504012837 11 202 1.6 3.2 0.00 0.00 0.00 48 1012.8
20260504012347 11 193 0.0 4.8 0.00 0.00 0.00 47 1012.7
20260504011849 11 204 1.6 4.8 0.00 0.00 0.00 47 1012.8
20260504011614 11 196 0.0 4.8 0.00 0.00 0.00 46 1013.0
20260504011338 11 198 1.6 6.4 0.00 0.00 0.00 46 1012.7
20260504010846 11 218 1.6 6.4 0.00 0.00 0.00 46 1012.7
20260504010356 11 191 0.0 3.2 0.00 0.00 0.00 45 1012.6
20260504010116 11 202 0.0 4.8 0.00 0.00 0.00 45 1012.9
20260504005855 12 225 0.0 4.8 0.00 0.00 0.00 45 1012.6
20260504005344 12 222 0.0 4.8 0.00 0.00 0.00 44 1012.6
20260504004909 12 188 1.6 3.2 0.00 0.00 0.00 44 1012.5
20260504004611 11 216 0.0 3.2 0.00 0.00 0.00 45 1012.8
20260504004356 12 237 1.6 3.2 0.00 0.00 0.00 44 1012.4
20260504003840 12 234 0.0 4.8 0.00 0.00 0.00 44 1012.3
20260504003350 12 225 0.0 4.8 0.00 0.00 0.00 43 1012.3
20260504003105 12 208 0.0 4.8 0.00 0.00 0.00 43 1012.5
20260504002851 12 235 0.0 3.2 0.00 0.00 0.00 43 1012.2
20260504002340 12 177 1.6 4.8 0.00 0.00 0.00 45 1012.1
20260504001845 12 234 0.0 6.4 0.00 0.00 0.00 44 1012.0
20260504001612 12 235 0.0 6.4 0.00 0.00 0.00 43 1012.3
20260504001355 12 244 1.6 8.0 0.00 0.00 0.00 43 1012.0
20260504000902 12 284 3.2 8.0 0.00 0.00 0.00 43 1012.0
20260504000353 12 207 1.6 6.4 0.00 0.00 0.00 42 1011.9
20260504000111 12 249 0.0 4.8 0.00 0.00 0.00 42 1012.1
20260503235914 12 258 1.6 6.4 0.00 0.00 0.00 42 1011.8
20260503235402 12 289 1.6 8.0 0.00 0.00 0.00 42 1011.9
20260503234847 13 235 0.0 8.0 0.00 0.00 0.00 41 1011.8
20260503234607 12 244 0.0 8.0 0.00 0.00 0.00 42 1012.1
20260503234413 13 264 3.2 8.0 0.00 0.00 0.00 41 1011.8
20260503233837 13 254 526.3 526.3 0.00 0.00 0.00 41 1011.6
20260503233406 13 203 1.6 14.5 0.00 0.00 0.00 40 1011.7
20260503233009 13 263 1.6 14.5 0.00 0.00 0.00 39 1011.9
20260503232907 13 264 1.6 14.5 0.00 0.00 0.00 40 1011.6
20260503232355 13 314 1.6 8.0 0.00 0.00 0.00 40 1011.6
20260503231838 13 260 1.6 8.0 0.00 0.00 0.00 40 1011.6
20260503231622 13 274 1.6 12.9 0.00 0.00 0.00 40 1011.8
20260503231346 13 282 1.6 12.9 0.00 0.00 0.00 40 1011.6
20260503230851 14 211 4.8 16.1 0.00 0.00 0.00 38 1011.6
20260503230340 14 282 8.0 22.5 0.00 0.00 0.00 37 1011.6
20260503230120 14 299 6.4 22.5 0.00 0.00 0.00 37 1011.8
20260503225844 14 276 12.9 22.5 0.00 0.00 0.00 36 1011.6
20260503225416 15 308 8.0 22.5 0.00 0.00 0.00 36 1011.4
20260503224841 15 275 3.2 16.1 0.00 0.00 0.00 37 1011.4
20260503224603 14 257 3.2 16.1 0.00 0.00 0.00 38 1011.7
20260503224350 15 175 4.8 12.9 0.00 0.00 0.00 37 1011.4
20260503223852 15 278 4.8 12.9 0.00 0.00 0.00 39 1011.4
20260503223342 14 291 4.8 17.7 0.00 0.00 0.00 38 1011.4
20260503223102 14 262 3.2 17.7 0.00 0.00 0.00 38 1011.6
20260503222846 14 247 3.2 17.7 0.00 0.00 0.00 40 1011.3
20260503222350 15 288 6.4 16.1 0.00 0.00 0.00 39 1011.4
20260503221854 15 218 6.4 19.3 0.00 0.00 0.00 37 1011.4
20260503221622 15 183 4.8 19.3 0.00 0.00 0.00 38 1011.7
20260503221343 15 266 6.4 19.3 0.00 0.00 0.00 37 1011.4
20260503220849 15 244 4.8 17.7 0.00 0.00 0.00 37 1011.3
20260503220419 15 248 8.0 17.7 0.00 0.00 0.00 37 1011.4
20260503220116 14 269 6.4 17.7 0.00 0.00 0.00 38 1011.6
20260503215859 15 328 4.8 14.5 0.00 0.00 0.00 38 1011.3
20260503215401 14 235 3.2 11.3 0.00 0.00 0.00 38 1011.3
20260503214845 14 319 3.2 14.5 0.00 0.00 0.00 37 1011.4
20260503214611 14 218 1.6 14.5 0.00 0.00 0.00 38 1011.7
20260503214353 14 293 4.8 14.5 0.00 0.00 0.00 37 1011.4
20260503213840 15 264 6.4 24.1 0.00 0.00 0.00 37 1011.4
20260503213349 15 252 12.9 24.1 0.00 0.00 0.00 36 1011.2
20260503213113 14 247 3.2 12.9 0.00 0.00 0.00 36 1011.4
20260503212851 14 264 4.8 17.7 0.00 0.00 0.00 36 1011.1
20260503212358 13 330 8.0 17.7 0.00 0.00 0.00 37 1011.2
20260503211847 13 303 8.0 19.3 0.00 0.00 0.00 36 1011.2
20260503211614 13 262 9.7 20.9 0.00 0.00 0.00 36 1011.5
20260503211356 14 283 11.3 20.9 0.00 0.00 0.00 36 1011.3
20260503210837 14 264 11.3 20.9 0.00 0.00 0.00 37 1011.1
20260503210349 13 300 9.7 19.3 0.00 0.00 0.00 36 1011.2
20260503210106 13 275 8.0 19.3 0.00 0.00 0.00 38 1011.4
20260503205848 13 268 8.0 19.3 0.00 0.00 0.00 36 1011.2
20260503205354 14 306 4.8 14.5 0.00 0.00 0.00 36 1011.2
20260503204840 15 223 6.4 16.1 0.00 0.00 0.00 37 1011.3
20260503204610 14 261 6.4 16.1 0.00 0.00 0.00 36 1011.5
20260503204349 15 281 6.4 22.5 0.00 0.00 0.00 36 1011.2
20260503203852 14 290 3.2 22.5 0.00 0.00 0.00 36 1011.3
20260503203402 14 264 8.0 25.7 0.00 0.00 0.00 36 1011.3
20260503203121 14 291 6.4 25.7 0.00 0.00 0.00 38 1011.6
20260503202351 14 321 6.4 20.9 0.00 0.00 0.00 35 1011.3
20260503201916 14 305 12.9 20.9 0.00 0.00 0.00 36 1011.3
20260503201623 14 258 6.4 16.1 0.00 0.00 0.00 35 1011.6
20260503200840 14 270 4.8 22.5 0.00 0.00 0.00 37 1011.5
20260503200351 13 289 14.5 22.5 0.00 0.00 0.00 39 1011.6
20260503200112 13 300 8.0 30.6 0.00 0.00 0.00 39 1011.7
20260503195352 14 212 14.5 30.6 0.00 0.00 0.00 38 1011.8
20260503194858 13 255 4.8 20.9 0.00 0.00 0.00 38 1011.7
20260503194628 13 165 3.2 20.9 0.00 0.00 0.00 37 1012.0
20260503194345 13 181 4.8 24.1 0.00 0.00 0.00 36 1012.0
20260503193851 13 283 11.3 24.1 0.00 0.00 0.00 36 1012.0
20260503193341 13 293 12.9 22.5 0.00 0.00 0.00 41 1012.1
20260503193104 13 324 6.4 29.0 0.00 0.00 0.00 39 1012.3
20260503192846 13 281 6.4 29.0 0.00 0.00 0.00 39 1012.0
20260503192353 13 285 12.9 29.0 0.00 0.00 0.00 40 1012.2
20260503191839 13 275 11.3 29.0 0.00 0.00 0.00 39 1012.1
20260503191608 13 284 12.9 29.0 0.00 0.00 0.00 39 1012.5
20260503191346 13 275 14.5 24.1 0.00 0.00 0.00 41 1012.1
20260503190852 13 296 9.7 0.0 0.00 0.00 0.00 42 1011.9
20260503190358 13 298 11.3 27.4 0.00 0.00 0.00 39 1012.3
20260503190124 13 289 11.3 27.4 0.00 0.00 0.00 40 1012.5
20260503185842 13 330 9.7 25.7 0.00 0.00 0.00 42 1012.3
20260503185348 13 293 8.0 14.5 0.00 0.00 0.00 40 1012.3
20260503184854 12 279 4.8 14.5 0.00 0.00 0.00 45 1012.5
20260503184619 12 274 4.8 27.4 0.00 0.00 0.00 46 1012.8
20260503184343 12 232 4.8 27.4 0.00 0.00 0.00 46 1012.5
20260503183848 12 213 12.9 30.6 0.00 0.00 0.00 40 1012.7
20260503183356 12 278 11.3 30.6 0.00 0.00 0.00 41 1012.5
20260503183113 12 245 14.5 30.6 0.00 0.00 0.00 40 1013.0
20260503182839 12 301 12.9 22.5 0.00 0.00 0.00 42 1012.7
20260503182347 12 279 6.4 20.9 0.00 0.00 0.00 41 1012.6
20260503181849 12 281 12.9 20.9 0.00 0.00 0.00 43 1012.7
20260503181615 11 298 8.0 20.9 0.00 0.00 0.00 41 1013.0
20260503181359 12 263 4.8 25.7 0.00 0.00 0.00 41 1012.6
20260503180343 12 290 11.3 25.7 0.00 0.00 0.00 45 1012.7
20260503180120 12 235 6.4 32.2 0.00 0.00 0.00 48 1012.9
20260503175846 12 289 6.4 32.2 0.00 0.00 0.00 44 1012.7
20260503175353 11 295 12.9 32.2 0.00 0.00 0.00 45 1012.9
20260503174916 11 277 9.7 25.7 0.00 0.00 0.00 41 1012.8
20260503174615 11 319 9.7 25.7 0.00 0.00 0.00 40 1013.1
20260503174339 12 274 6.4 25.7 0.00 0.00 0.00 44 1012.7
20260503173847 12 299 12.9 25.7 0.00 0.00 0.00 45 1012.7
20260503173356 11 185 8.0 22.5 0.00 0.00 0.00 44 1012.9
20260503173212 11 256 6.4 22.5 0.00 0.00 0.00 46 1013.2
20260503172857 11 286 9.7 30.6 0.00 0.00 0.00 44 1013.0
20260503172346 11 235 11.3 30.6 0.00 0.00 0.00 47 1013.2
20260503171847 11 306 12.9 29.0 0.00 0.00 0.00 42 1013.2
20260503171611 11 274 16.1 29.0 0.00 0.00 0.00 41 1013.4
20260503171354 11 260 3.2 20.9 0.00 0.00 0.00 44 1013.1
20260503170859 11 272 11.3 20.9 0.00 0.00 0.00 43 1013.1
20260503170346 11 305 6.4 20.9 0.00 0.00 0.00 44 1013.2
20260503170106 10 313 6.4 20.9 0.00 0.00 0.00 45 1013.5